Orbital Elements at Epoch 2459000.5 (2020-May-31.0) TDB
Reference: JPL 28 (heliocentric ecliptic J2000)
Element | Value | Uncertainty (1-sigma) | Units |
e | .2635656018003226 | 3.1138e-08 | |
a | 2.274917289657322 | 8.9515e-09 | au |
q | 1.675327345162831 | 7.1448e-08 | au |
i | 24.37114805334643 | 5.0291e-06 | deg |
node | 97.1997618848734 | 9.1316e-06 | deg |
peri | 241.9951978932379 | 1.2751e-05 | deg |
M | 149.6985797072849 | 1.023e-05 | deg |
tp | 2458479.350862756039 (2018-Dec-26.85086276) | 3.4537e-05 | TDB |
period | 1253.276348878384 3.43 | 7.3972e-06 2.025e-08 | d yr |
n | .2872471026220041 | 1.6954e-09 | deg/d |
Q | 2.874507234151813 | 1.1311e-08 | au |
|
| | Orbit Determination Parameters
Additional Information
|